TimeEST,TemperatureF,Dew PointF,Humidity,Sea Level PressureIn,VisibilityMPH,Wind Direction,Wind SpeedMPH,Gust SpeedMPH,PrecipitationIn,Events,Conditions,WindDirDegrees,DateUTC
12:53 AM,39.0,33.1,79,29.20,10.0,NNW,5.8,-,N/A,,Overcast,340,2012-12-21 05:53:00
1:12 AM,37.4,33.8,87,29.20,6.0,NW,4.6,-,0.01,Rain,Light Rain,320,2012-12-21 06:12:00
1:53 AM,35.1,30.9,85,29.25,3.0,NW,12.7,20.7,0.03,Snow,Light Snow,320,2012-12-21 06:53:00
2:04 AM,35.6,30.2,81,29.24,2.5,NNW,10.4,23.0,0.00,Snow,Light Snow,330,2012-12-21 07:04:00
2:13 AM,35.6,30.2,81,29.25,3.0,NNW,15.0,25.3,0.00,Snow,Light Snow,330,2012-12-21 07:13:00
2:21 AM,35.6,30.2,81,29.26,5.0,NNW,13.8,25.3,0.01,Snow,Light Snow,330,2012-12-21 07:21:00
2:53 AM,36.0,30.0,79,29.30,3.0,NNW,13.8,31.1,0.01,Snow,Light Snow,330,2012-12-21 07:53:00
3:01 AM,35.6,30.2,81,29.30,2.5,NNW,15.0,28.8,0.00,Snow,Light Snow,330,2012-12-21 08:01:00
3:35 AM,35.6,30.2,81,29.32,3.0,NNW,18.4,32.2,0.01,Snow,Light Snow,330,2012-12-21 08:35:00
3:53 AM,35.1,30.9,85,29.35,2.5,NNW,24.2,32.2,0.01,Snow,Light Snow,330,2012-12-21 08:53:00
4:01 AM,35.6,30.2,81,29.35,3.0,NNW,15.0,32.2,0.00,Snow,Light Snow,340,2012-12-21 09:01:00
4:32 AM,35.6,30.2,81,29.38,1.8,NNW,20.7,32.2,0.00,Snow,Light Snow,330,2012-12-21 09:32:00
4:39 AM,35.6,30.2,81,29.38,2.0,NNW,15.0,32.2,0.00,Snow,Light Snow,330,2012-12-21 09:39:00
4:53 AM,35.1,30.0,82,29.41,2.0,NNW,24.2,38.0,0.00,Snow,Light Snow,330,2012-12-21 09:53:00
4:59 AM,35.6,28.4,75,29.40,4.0,NNW,23.0,38.0,0.00,Snow,Light Snow,330,2012-12-21 09:59:00
5:07 AM,35.6,30.2,81,29.41,3.0,NNW,17.3,33.4,0.00,Snow,Light Snow,330,2012-12-21 10:07:00
5:09 AM,35.6,30.2,81,29.41,2.5,NNW,20.7,32.2,0.00,Snow,Light Snow,330,2012-12-21 10:09:00
5:23 AM,35.6,30.2,81,29.41,4.0,NNW,10.4,33.4,0.00,Snow,Light Snow,330,2012-12-21 10:23:00
5:42 AM,35.6,28.4,75,29.43,8.0,NNW,17.3,32.2,0.01,Snow,Light Snow,340,2012-12-21 10:42:00
5:53 AM,36.0,28.0,73,29.44,10.0,NNW,19.6,34.5,0.01,,Overcast,330,2012-12-21 10:53:00
7:46 AM,35.6,28.4,75,29.52,4.0,NNW,16.1,24.2,0.00,Snow,Light Snow,330,2012-12-21 12:46:00
7:53 AM,35.1,28.9,78,29.54,4.0,NNW,15.0,35.7,0.00,Snow,Light Snow,330,2012-12-21 12:53:00
8:18 AM,35.6,28.4,75,29.54,1.8,NNW,17.3,35.7,0.00,Snow,Light Snow,340,2012-12-21 13:18:00
8:26 AM,35.6,30.2,81,29.54,1.5,NNW,15.0,33.4,0.00,Snow,Light Snow,340,2012-12-21 13:26:00
8:35 AM,35.6,30.2,81,29.55,2.5,NNW,16.1,28.8,0.00,Snow,Light Snow,330,2012-12-21 13:35:00
8:48 AM,35.6,30.2,81,29.55,1.2,NNW,16.1,34.5,0.00,Snow,Light Snow,330,2012-12-21 13:48:00
8:53 AM,35.1,30.9,85,29.57,0.5,NW,24.2,40.3,0.00,Fog-Snow,Snow,320,2012-12-21 13:53:00
9:53 AM,35.1,30.0,82,29.61,0.8,NW,20.7,44.9,0.00,Snow,Light Snow,320,2012-12-21 14:53:00
10:05 AM,35.6,30.2,81,29.61,0.5,NW,20.7,35.7,0.00,Snow,Snow,320,2012-12-21 15:05:00
10:53 AM,34.0,30.9,89,29.67,0.2,NNW,18.4,43.7,0.00,Fog-Snow,Snow,330,2012-12-21 15:53:00
11:53 AM,34.0,30.9,89,29.69,0.5,NNW,23.0,36.8,0.01,Fog-Snow,Light Snow,330,2012-12-21 16:53:00
11:59 AM,35.6,30.2,81,29.67,1.0,NNW,20.7,40.3,0.00,Snow,Light Snow,330,2012-12-21 16:59:00
12:16 PM,33.8,30.2,87,29.68,0.5,NNW,24.2,35.7,0.00,Fog-Snow,Snow,330,2012-12-21 17:16:00
12:32 PM,35.6,30.2,81,29.68,0.8,NW,24.2,34.5,0.00,Snow,Light Snow,320,2012-12-21 17:32:00
12:48 PM,35.6,30.2,81,29.70,1.0,NNW,21.9,34.5,0.00,Snow,Light Snow,330,2012-12-21 17:48:00
12:53 PM,35.1,30.0,82,29.72,1.0,NNW,26.5,36.8,0.00,Snow,Light Snow,330,2012-12-21 17:53:00
12:58 PM,35.6,30.2,81,29.70,1.5,NW,18.4,36.8,0.00,Snow,Light Snow,320,2012-12-21 17:58:00
1:03 PM,35.6,30.2,81,29.70,2.0,NNW,24.2,36.8,0.00,Snow,Light Snow,330,2012-12-21 18:03:00
1:11 PM,35.6,28.4,75,29.71,5.0,NNW,21.9,39.1,0.01,Snow,Light Snow,330,2012-12-21 18:11:00
1:32 PM,35.6,28.4,75,29.72,9.0,NNW,18.4,36.8,0.04,Snow,Light Snow,330,2012-12-21 18:32:00
1:53 PM,36.0,27.0,70,29.75,10.0,NNW,19.6,36.8,0.06,,Overcast,330,2012-12-21 18:53:00
2:31 PM,35.6,26.6,70,29.76,10.0,NNW,21.9,41.4,0.03,,Overcast,330,2012-12-21 19:31:00
2:53 PM,36.0,26.1,67,29.79,10.0,NNW,25.3,39.1,0.04,Snow,Light Snow,340,2012-12-21 19:53:00
3:53 PM,35.1,27.0,72,29.84,6.0,NNW,18.4,36.8,0.02,Snow,Light Snow,330,2012-12-21 20:53:00
4:53 PM,35.1,27.0,72,29.88,2.5,NNW,20.7,34.5,0.00,Snow,Light Snow,330,2012-12-21 21:53:00
5:13 PM,35.6,26.6,70,29.88,4.0,NNW,18.4,33.4,0.01,Snow,Light Snow,330,2012-12-21 22:13:00
5:53 PM,36.0,25.0,64,29.92,10.0,NNW,15.0,38.0,0.01,,Overcast,340,2012-12-21 22:53:00
6:53 PM,35.1,25.0,67,29.96,10.0,NNW,18.4,33.4,0.01,,Overcast,330,2012-12-21 23:53:00
7:01 PM,35.6,24.8,65,29.94,10.0,NNW,20.7,32.2,N/A,,Overcast,330,2012-12-22 00:01:00
7:38 PM,35.6,24.8,65,29.96,10.0,NNW,18.4,33.4,N/A,,Overcast,340,2012-12-22 00:38:00
7:53 PM,35.1,24.1,64,29.99,10.0,NNW,16.1,36.8,N/A,,Overcast,330,2012-12-22 00:53:00
8:53 PM,35.1,24.1,64,30.02,10.0,NNW,17.3,29.9,N/A,,Overcast,340,2012-12-22 01:53:00
9:53 PM,34.0,23.0,64,30.04,10.0,NNW,16.1,24.2,N/A,,Overcast,330,2012-12-22 02:53:00
10:53 PM,33.1,23.0,66,30.05,10.0,NNW,9.2,20.7,N/A,,Overcast,340,2012-12-22 03:53:00
11:53 PM,33.1,23.0,66,30.06,10.0,NNW,8.1,-,N/A,,Overcast,330,2012-12-22 04:53:00